Home > Weather > Bhinga > Past weeks

Flag for India Past Weather in Bhinga, Uttar Pradesh, India — Yesterday and Last 2 Weeks

Now
90 °F

Scattered clouds.


Feels Like: 111 °F
Forecast: 82 / 93 °F
Wind: 5 mph from East

Location: Lucknow / Amausi

Current Time: Jun 25, 2016 at 7:49:01 PM

Latest Report: Jun 25, 2016 at 7:00 PM


Visibility: 2 mi

Pressure: 29.50 "Hg

Humidity: 79%

Dew Point: 82 °F

Location of BhingaLocation

Past Weather in Bhinga — Graph

°F

Bhinga Temperature Yesterday

Maximum temperature yesterday: 95 °F (at 1:30 PM)
Minimum temperature yesterday: 79 °F (at 8:30 AM)
Average temperature yesterday: 88 °F

High & Low Weather Summary for the Past Weeks

 TemperatureHumidityPressure
High111 °F (Jun 11, 4:00 PM)100% (Jun 15, 5:30 PM)29.68 "Hg (Jun 15, 5:30 PM)
Low75 °F (Jun 21, 7:30 AM)25% (Jun 11, 4:00 PM)29.36 "Hg (Jun 14, 5:00 PM)
Average93 °F65%29.51 "Hg
* Reported Jun 10 7:00 PM — Jun 25 6:30 PM, Bhinga, Weather by CustomWeather, © 2016

Note: Actual official high and low records may vary slightly from our data, if they occured in-between our weather recording intervals... More about our weather records

Advertising

Bhinga Weather History for the Previous 24 Hours

Scroll right to see more
 ConditionsComfort  
Time TempWeatherWind HumidityBarometerVisibility
6:30 PM
Sat, Jun 25
90 °FBroken clouds.5 mph75%29.53 "Hg2 mi
6:00 PM91 °FMore clouds than sun.3 mph75%29.53 "Hg2 mi
5:30 PM86 °FMore clouds than sun.5 mph89%29.53 "Hg2 mi
5:00 PM91 °FMore clouds than sun.5 mph80%29.50 "Hg2 mi
4:30 PM91 °FMore clouds than sun.8 mph75%29.53 "Hg1 mi
4:00 PM91 °FMore clouds than sun.9 mph63%29.53 "Hg1 mi
3:30 PM90 °FLight rain. More clouds than sun.6 mph84%29.53 "Hg1 mi
3:00 PM97 °FRain. Broken clouds.10 mph63%29.50 "Hg1 mi
2:30 PM100 °FBroken clouds.5 mph57%29.53 "Hg3 mi
2:00 PM100 °FBroken clouds.3 mph60%29.53 "Hg3 mi
1:30 PM100 °FBroken clouds.2 mph57%29.53 "Hg3 mi
12:30 PM99 °FBroken clouds.2 mph60%29.56 "Hg3 mi
12:00 PM99 °FBroken clouds.3 mph60%29.59 "Hg3 mi
11:30 AM97 °FBroken clouds.2 mph60%29.59 "Hg3 mi
10:30 AM95 °FBroken clouds.3 mph67%29.62 "Hg3 mi
10:00 AM93 °FBroken clouds.5 mph67%29.62 "Hg3 mi
9:30 AM93 °FBroken clouds.5 mph71%29.59 "Hg2 mi
9:00 AM90 °FBroken clouds.7 mph79%29.59 "Hg2 mi
8:30 AM90 °FBroken clouds.7 mph79%29.59 "Hg2 mi
8:00 AM88 °FScattered clouds.7 mph84%29.59 "Hg2 mi
7:30 AM88 °FBroken clouds.7 mph89%29.59 "Hg2 mi
7:00 AM86 °FPartly sunny.7 mph94%29.56 "Hg2 mi
6:30 AM86 °FPartly sunny.6 mph89%29.56 "Hg2 mi
6:00 AM84 °FScattered clouds.6 mph94%29.56 "Hg2 mi
5:30 AM84 °FPassing clouds.3 mph94%29.56 "Hg2 mi
5:00 AM84 °FPassing clouds.6 mph89%29.56 "Hg2 mi
4:00 AM84 °FPassing clouds.5 mph89%29.53 "Hg2 mi
3:00 AM84 °FPartly cloudy.5 mph89%29.56 "Hg2 mi
2:00 AM86 °FPartly cloudy.5 mph79%29.53 "Hg2 mi
1:00 AM86 °FPartly cloudy.2 mph79%29.56 "Hg2 mi
12:00 AM86 °FPartly cloudy.No wind84%29.56 "Hg2 mi
11:00 PM
Fri, Jun 24
86 °FPartly cloudy.3 mph84%29.53 "Hg2 mi
10:00 PM88 °FPartly cloudy.6 mph79%29.53 "Hg2 mi
9:00 PM88 °FPartly cloudy.7 mph79%29.50 "Hg2 mi
8:30 PM90 °FPartly cloudy.6 mph79%29.50 "Hg2 mi
8:00 PM90 °FPartly cloudy.No wind84%29.50 "Hg2 mi
7:30 PM91 °FBroken clouds.No wind80%29.47 "Hg2 mi
7:00 PM91 °FBroken clouds.No wind80%29.47 "Hg2 mi
Weather by CustomWeather, © 2016

See weather overviewHow to use our weather pages